Location: Unspecified
(0.0000°N, 0.0000°E)
Time: 21:36:48
(UTC+00:00)

Vanguard 1 - All Passes

Search period start: 28 March 2017 00:00
Search period end: 07 April 2017 00:00
Orbit: 654 x 3830 km, 34.2° (Epoch: 27 March)

Date Brightness Start Highest point End Pass type
(mag) Time Alt. Az. Time Alt. Az. Time Alt. Az.
28 Mar - 00:18:13 10° SSW 00:35:46 25° SSE 00:49:49 10° ESE visible
28 Mar - 02:45:36 10° SW 03:05:23 51° SSE 03:16:48 10° ENE visible
28 Mar - 05:13:59 10° WSW 05:29:06 57° NW 05:37:09 10° NE visible
28 Mar - 14:55:39 10° NNW 15:01:48 37° NE 15:12:14 10° ESE daylight
28 Mar - 17:14:36 10° WNW 17:23:39 59° SSW 17:40:41 10° SE daylight
28 Mar - 19:39:12 10° WSW 19:51:03 27° SSW 20:07:53 10° SSE visible
28 Mar - 22:10:39 10° SW 22:24:51 20° S 22:39:43 10° SE visible
29 Mar - 00:40:08 10° SSW 00:59:05 30° SSE 01:13:19 10° ESE visible
29 Mar - 03:07:12 10° SW 03:27:21 65° SSE 03:38:27 10° ENE visible
29 Mar - 05:36:47 10° WSW 05:50:05 40° NW 05:57:39 10° NNE visible
29 Mar - 15:16:07 10° NW 15:22:43 56° NE 15:34:50 10° ESE daylight
29 Mar - 17:36:16 10° W 17:45:35 45° SSW 18:02:11 10° SE daylight
29 Mar - 20:02:35 10° WSW 20:14:19 22° SSW 20:29:55 10° SSE visible
29 Mar - 22:33:53 10° SW 22:49:03 21° S 23:04:05 10° SE visible
30 Mar - 01:01:45 10° SW 01:22:02 37° SSE 01:36:18 10° E visible
30 Mar - 03:28:59 10° SW 03:49:02 83° SE 03:59:45 10° ENE visible
30 Mar - 06:00:12 10° W 06:11:03 28° NW 06:17:52 10° NNE daylight
30 Mar - 13:21:54 10° NNE 13:23:39 11° NE 13:25:36 10° ENE daylight
30 Mar - 15:36:54 10° NW 15:43:47 82° NE 15:56:58 10° SE daylight
30 Mar - 17:58:18 10° W 18:07:48 35° SSW 18:23:36 10° SE visible
30 Mar - 20:26:17 10° SW 20:37:57 20° S 20:52:33 10° SE visible
30 Mar - 22:56:27 10° SSW 23:13:03 23° SSE 23:28:36 10° ESE visible
31 Mar - 01:23:15 10° SW 01:44:38 45° SSE 01:58:47 10° E visible
31 Mar - 03:51:02 10° WSW 04:10:28 77° NW 04:20:48 10° NE visible
31 Mar - 06:24:31 10° W 06:32:08 18° NW 06:37:35 10° N daylight
31 Mar - 13:40:28 10° N 13:44:38 20° NE 13:50:20 10° E daylight
31 Mar - 15:57:58 10° WNW 16:05:05 71° SW 16:18:44 10° SE daylight
31 Mar - 18:20:48 10° WSW 18:30:19 27° SSW 18:45:02 10° SSE visible
31 Mar - 20:49:59 10° SW 21:01:53 19° S 21:16:02 10° SE visible
31 Mar - 23:18:28 10° SSW 23:36:42 27° SSE 23:52:49 10° ESE visible
01 Apr - 01:44:45 10° SW 02:06:56 56° SSE 02:20:49 10° ENE visible
01 Apr - 04:13:28 10° WSW 04:31:41 59° NW 04:41:36 10° NE visible
01 Apr - 06:50:57 10° NW 06:53:27 11° NW 06:55:41 10° NNW daylight
01 Apr - 14:00:27 10° NNW 14:05:29 34° NE 14:13:24 10° ESE daylight
01 Apr - 16:19:20 10° WNW 16:26:41 51° SSW 16:40:14 10° SE daylight
01 Apr - 18:43:46 10° WSW 18:53:08 22° SSW 19:06:38 10° SSE visible
01 Apr - 21:13:16 10° SSW 21:25:58 19° S 21:40:26 10° SE visible
01 Apr - 23:40:07 10° SSW 23:59:58 33° SSE 00:16:30 10° E visible
02 Apr - 02:06:21 10° SW 02:28:56 70° SE 02:42:28 10° ENE visible
02 Apr - 04:36:24 10° WSW 04:52:47 43° NW 05:02:11 10° NNE visible
02 Apr - 14:20:55 10° NW 14:26:22 56° NE 14:35:46 10° ESE daylight
02 Apr - 16:41:05 10° W 16:48:33 37° SSW 17:01:32 10° SE daylight
02 Apr - 19:07:09 10° SW 19:16:17 19° S 19:28:38 10° SSE visible
02 Apr - 21:35:55 10° SSW 21:50:02 20° SSE 22:05:24 10° SE visible
03 Apr - 00:01:34 10° SW 00:22:52 40° SSE 00:39:36 10° E visible
03 Apr - 02:28:09 10° SW 02:50:41 87° SE 03:03:49 10° NE visible
03 Apr - 04:59:58 10° W 05:13:55 31° NW 05:22:30 10° NNE visible
03 Apr - 14:41:43 10° NW 14:47:24 88° NNE 14:57:40 10° SE daylight
03 Apr - 17:03:14 10° WSW 17:10:42 28° SSW 17:22:43 10° SSE daylight
03 Apr - 19:30:43 10° SW 19:39:48 17° S 19:51:24 10° SSE visible
03 Apr - 21:57:58 10° SSW 22:13:52 24° SSE 22:30:24 10° ESE visible
04 Apr - 00:22:57 10° SW 00:45:26 49° SSE 01:02:10 10° ENE visible
04 Apr - 02:50:13 10° WSW 03:12:13 76° NW 03:24:53 10° NE visible
04 Apr - 05:24:21 10° W 05:35:09 22° NW 05:42:29 10° N visible
04 Apr - 12:45:18 10° N 12:48:34 17° NE 12:52:38 10° E daylight
04 Apr - 15:02:50 10° WNW 15:08:42 61° SSW 15:19:12 10° SE daylight
04 Apr - 17:25:53 10° WSW 17:33:08 22° SSW 17:43:53 10° SSE daylight
04 Apr - 19:54:03 10° SSW 20:03:32 16° S 20:15:13 10° SE visible
04 Apr - 22:19:36 10° SSW 22:37:20 28° SSE 22:54:58 10° ESE visible
05 Apr - 00:44:22 10° SW 01:07:43 60° SE 01:24:16 10° ENE visible
05 Apr - 03:12:41 10° WSW 03:33:34 60° NW 03:45:44 10° NE visible
05 Apr - 05:49:57 10° WNW 05:56:39 15° NW 06:01:50 10° N daylight
05 Apr - 13:05:13 10° NNW 13:09:29 31° NE 13:15:30 10° ESE daylight
05 Apr - 15:24:19 10° W 15:30:15 41° SSW 15:40:27 10° SE daylight
05 Apr - 17:49:03 10° SW 17:55:51 17° S 18:05:09 10° SSE daylight
05 Apr - 20:16:47 10° SSW 20:27:23 17° S 20:40:11 10° SE visible
05 Apr - 22:40:58 10° SSW 23:00:26 34° SSE 23:18:54 10° E visible
06 Apr - 01:05:54 10° SW 01:29:45 74° SE 01:45:59 10° ENE visible
06 Apr - 03:35:39 10° WSW 03:54:51 46° NW 04:06:23 10° NNE visible
06 Apr - 13:25:41 10° NW 13:30:24 56° NE 13:37:38 10° ESE daylight
06 Apr - 15:46:13 10° W 15:52:05 29° SSW 16:01:28 10° SSE daylight
06 Apr - 18:12:38 10° SW 18:18:52 14° S 18:26:49 10° SSE visible
06 Apr - 20:38:50 10° SSW 20:51:11 19° SSE 21:05:46 10° ESE visible
06 Apr - 23:02:12 10° SW 23:23:11 42° SSE 23:42:10 10° E visible
